Regional Weather Roundup
Issued by NWS Albany, NY

Home | Current Version | Previous Version | Graphics & Text | Print | Product List | Glossary On
Versions: 1 2 3 4 5 6 7 8 9 10 11 12 13 14 15 16 17 18 19 20 21 22 23 24 25 26 27 28 29 30 31 32 33 34 35 36 37 38 39 40 41 42 43 44 45 46 47 48 49 50
012
ASUS41 KALY 192310
RWRALY

NEW YORK STATE HOURLY WEATHER ROUNDUP
NATIONAL WEATHER SERVICE ALBANY NY
700 PM EDT TUE SEP 19 2017

NOTE: "FAIR" INDICATES FEW OR NO CLOUDS BELOW 12,000 FEET WITH NO
SIGNIFICANT WEATHER AND/OR NO OBSTRUCTIONS TO VISIBILITY.

NYZ032-033-038>043-046>054-057>066-NYZ062>081-082-084-200000-
EAST


CITY           SKY/WX    TMP DP  RH WIND       PRES   REMARKS
ALBANY         CLOUDY    74  59  59 E6        30.01R
GLENS FALLS    PTCLDY    70  60  70 N5        30.01F
POUGHKEEPSIE   CLOUDY    75  61  61 NE9       29.94S
NEWBURGH       MOCLDY    73  66  78 E9        29.97S
MONTGOMERY     CLOUDY    73  64  73 NE7       29.95S
WHITE PLAINS   LGT RAIN  69  65  86 N13G24    29.90F
ISLIP          LGT RAIN  69  67  93 N17G26    29.85F
NEW YORK CITY  LGT RAIN  73  66  78 NE21G28   29.88S
CENTRAL PARK   CLOUDY    72  65  78 NE14G24   29.92S
$$

NYZ005>009-017-018-044>046-055-056-200000-
CENTRAL


CITY           SKY/WX    TMP DP  RH WIND       PRES   REMARKS
FULTON         MOCLDY    72  64  76 N7        29.99F
SYRACUSE       MOCLDY    73  63  70 CALM      29.98S
ROME           CLEAR     73  63  70 E3        30.01R
ELMIRA         CLEAR     71  65  81 CALM      29.98S
BINGHAMTON     CLEAR     72  52  49 NE3       30.02S
MONTICELLO     MOCLDY    70  61  73 E7        30.02R
$$

NYZ026>034-041>043-087-200000-
NORTH


CITY           SKY/WX    TMP DP  RH WIND       PRES   REMARKS
WATERTOWN      PTCLDY    72  69  90 SW3       29.99S
FORT DRUM      NOT AVBL
OGDENSBURG     FAIR      76  65  69 CALM      30.00R
MASSENA        PTCLDY    75  67  76 NE3       30.00F
SARANAC LAKE   CLEAR     68  62  81 NE7       30.05R
PLATTSBURGH    CLEAR     69  62  78 CALM      30.02S
$$

NYZ001>004-010>016-019>021-085-200000-
WEST


CITY           SKY/WX    TMP DP  RH WIND       PRES   REMARKS
NIAGARA FALLS  CLEAR     76  65  68 NE7       29.98S
BUFFALO        CLOUDY    75  68  78 NE7       29.98R
DUNKIRK        CLEAR     73  65  75 CALM      29.98S
JAMESTOWN      PTCLDY    72  65  78 N6        30.02S
WELLSVILLE     CLEAR     72  57  59 NE5       30.05S
ROCHESTER      PTCLDY    76  64  66 E8        30.00R
PENN YAN       CLEAR     71  64  78 CALM      30.01S
$$

             KEY
       WCI = WIND CHILL INDEX
       VSB = VISIBILITY
       HX  = HEAT INDEX
$$




USA.gov is the U.S. government's official web portal to all federal, state and local government web resources and services.